Simultaneous Nadir Overpasses (SNOs) Predictions

Prediction of SNOs between NOAA-19 and TERRA Satellite Orbit:

Table of predicted SNOs for the next 14.0 days since TLE Epoch: 1/30/2016
Index Date (NOAA-19) Time (NOAA-19) Lat,Lon (NOAA-19) SZA (NOAA-19 ) Date (TERRA) Time (TERRA) Lat,Lon (TERRA) SZA (TERRA ) Distance(km) Time Diff (sec)
1 01/31/2016 10:13:20 73.93, 30.53 91.32 01/31/2016 10:14:25 73.83, 33.62 91.25 96.08 65
2 01/31/2016 11:04:03 -73.14,-160.30 89.48 01/31/2016 11:04:06 -73.13,-160.23 89.49 2.54 3
3 01/31/2016 11:54:51 72.40, 8.56 89.80 01/31/2016 11:53:44 72.46, 6.13 89.83 81.75 67
4 02/02/2016 15:47:13 -73.20, 128.81 90.04 02/02/2016 15:48:22 -73.18, 128.80 90.06 2.89 69
5 02/02/2016 16:38:14 73.08, -63.67 89.84 02/02/2016 16:37:49 73.10, -63.72 89.85 2.40 25
6 02/04/2016 21:21:25 73.17,-134.62 89.28 02/04/2016 21:22:04 73.19,-134.60 89.30 2.14 39
7 02/04/2016 22:12:21 -73.06, 32.89 90.84 02/04/2016 22:11:34 -73.07, 32.79 90.84 3.28 47
8 02/07/2016 02:55:32 -73.19, -38.14 91.39 02/07/2016 02:55:49 -73.16, -38.10 91.42 3.00 17
9 02/07/2016 03:46:30 72.86, 129.82 88.29 02/07/2016 03:45:18 72.97, 129.16 88.38 24.56 72
10 02/09/2016 07:38:49 -73.61,-109.87 91.67 02/09/2016 07:39:59 -73.51,-108.45 91.75 45.89 70
11 02/09/2016 08:29:45 73.16, 58.40 87.89 02/09/2016 08:29:31 73.16, 58.47 87.88 2.30 14
12 02/11/2016 13:12:55 73.23, -12.48 87.24 02/11/2016 13:13:46 73.24, -12.44 87.25 1.87 51
13 02/11/2016 14:03:50 -73.14, 154.99 92.86 02/11/2016 14:03:16 -73.12, 154.96 92.88 1.91 34




NCC Satellite Simultaneous Nadir Overpasses (SNOs) Prediction Service
